Home > Weather > Stonewall > Past weeks

Flag for Canada Weather for the Past 2 Weeks in Stonewall, Manitoba, Canada

Now
64 °F

Passing clouds.


Feels Like: 64 °F
Forecast: N/A
Wind: 5 mph from North

Location: Winnipeg Int. Airportman.

Current Time: May 1, 2016 at 4:59:24 PM

Latest Report: May 1, 2016 at 4:00 PM


Visibility: 15 mi

Pressure: 30.19 "Hg

Humidity: 28%

Dew Point: 30 °F

Location of StonewallLocation

Historic Weather in Stonewall — Graph

°F

Stonewall Temperature Yesterday

Maximum temperature yesterday: 61 °F (at 3:00 PM)
Minimum temperature yesterday: 32 °F (at 5:00 AM)
Average temperature yesterday: 49 °F

High & Low Weather Summary for the Past Weeks

 TemperatureHumidityPressure
High68 °F (Apr 20, 6:00 PM)100% (Apr 16, 7:00 PM)30.56 "Hg (Apr 16, 7:00 PM)
Low28 °F (Apr 22, 3:00 AM)18% (Apr 28, 5:00 PM)29.84 "Hg (Apr 20, 8:00 PM)
Average44 °F58%30.21 "Hg
* Reported Apr 16 3:00 PM — May 1 3:00 PM, Stonewall, Weather by CustomWeather, © 2016

Note: Actual official high and low records may vary slightly from our data, if they occured in-between our weather recording intervals... More about our weather records

Advertising

Stonewall Weather History for the Previous 24 Hours

Scroll right to see more
 ConditionsComfort  
Time TempWeatherWind HumidityBarometerVisibility
3:00 PM
Sun, May 1
64 °FPassing clouds.2 mph28%30.21 "Hg15 mi
2:00 PM64 °FPassing clouds.7 mph30%30.24 "Hg15 mi
1:00 PM63 °FSunny.5 mph30%30.26 "Hg15 mi
12:00 PM63 °FSunny.3 mph30%30.29 "Hg15 mi
11:00 AM61 °FSunny.7 mph29%30.31 "Hg15 mi
10:00 AM55 °FSunny.5 mph36%30.33 "Hg15 mi
9:00 AM48 °FSunny.5 mph50%30.34 "Hg15 mi
8:00 AM41 °FSunny.3 mph66%30.35 "Hg15 mi
7:00 AM34 °FClear.No wind75%30.34 "Hg15 mi
6:00 AM37 °FClear.No wind70%30.34 "Hg15 mi
5:00 AM36 °FClear.No wind75%30.34 "Hg15 mi
4:00 AM37 °FClear.2 mph70%30.34 "Hg15 mi
3:00 AM39 °FClear.5 mph65%30.34 "Hg15 mi
2:00 AM37 °FClear.5 mph70%30.35 "Hg15 mi
1:00 AM39 °FClear.8 mph70%30.35 "Hg15 mi
12:00 AM41 °FClear.8 mph66%30.35 "Hg15 mi
11:00 PM
Sat, Apr 30
46 °FClear.10 mph53%30.34 "Hg15 mi
10:00 PM48 °FPassing clouds.10 mph50%30.33 "Hg15 mi
9:00 PM52 °FPassing clouds.10 mph41%30.32 "Hg15 mi
8:00 PM57 °FSunny.10 mph33%30.31 "Hg15 mi
7:00 PM61 °FSunny.18 mph29%30.31 "Hg15 mi
6:00 PM61 °FSunny.20 mph29%30.30 "Hg15 mi
5:00 PM61 °FSunny.18 mph29%30.31 "Hg15 mi
4:00 PM61 °FSunny.18 mph29%30.32 "Hg15 mi
Weather by CustomWeather, © 2016

See weather overviewHow to use our weather pages